Location: Unspecified
(47.9278°N, 0.0000°E)
Time: 09:39:54
(UTC+00:00)

NOAA 16 DEB - Visible Passes

Search period start: 04 April 2026 00:00
Search period end: 14 April 2026 00:00
Orbit: 791 x 812 km, 98.7° (Epoch: 28 March)

Date Brightness Start Highest point End Pass type
(mag) Time Alt. Az. Time Alt. Az. Time Alt. Az.
4 Apr ? 20:31:38 19° ENE 20:32:28 19° ENE 20:36:06 10° NNE visible
4 Apr ? 22:12:35 57° NW 22:12:35 57° NW 22:16:51 10° NNW visible
5 Apr ? 20:04:55 11° ENE 20:06:34 13° NE 20:08:41 10° NNE visible
5 Apr ? 21:45:52 64° NNE 21:45:52 64° NNE 21:50:32 10° N visible
5 Apr ? 23:26:48 17° WNW 23:26:48 17° WNW 23:29:04 10° NW visible
6 Apr ? 21:19:08 42° ENE 21:19:08 42° ENE 21:24:02 10° N visible
6 Apr ? 23:00:05 27° WNW 23:00:05 27° WNW 23:03:31 10° NW visible
7 Apr ? 20:52:24 26° ENE 20:53:01 27° ENE 20:57:21 10° N visible
7 Apr ? 22:33:20 44° WNW 22:33:20 44° WNW 22:37:32 10° NNW visible
8 Apr ? 20:25:39 16° ENE 20:27:01 18° ENE 20:30:24 10° NNE visible
8 Apr ? 22:06:36 72° NW 22:06:36 72° NW 22:11:20 10° NNW visible
8 Apr ? 23:47:32 11° WNW 23:47:32 11° WNW 23:48:29 10° WNW visible
9 Apr ? 19:59:31 10° ENE 20:01:06 11° NE 20:02:42 10° NNE visible
9 Apr ? 21:39:51 62° ENE 21:39:51 62° ENE 21:44:57 10° N visible
9 Apr ? 23:20:47 19° WNW 23:20:47 19° WNW 23:23:44 10° NW visible
10 Apr ? 21:13:05 37° E 21:13:34 38° ENE 21:18:23 10° N visible
10 Apr ? 22:54:02 32° W 22:54:02 32° W 22:58:02 10° NNW visible
11 Apr ? 20:46:19 23° E 20:47:28 25° ENE 20:51:37 10° N visible
11 Apr ? 22:27:16 53° W 22:27:16 53° W 22:31:58 10° NNW visible
12 Apr ? 20:19:33 13° E 20:21:27 16° NE 20:24:33 10° NNE visible
12 Apr ? 22:00:30 88° NNW 22:00:30 88° NNW 22:05:41 10° NNW visible
12 Apr ? 23:41:26 13° W 23:41:26 13° W 23:43:22 10° WNW visible
13 Apr ? 19:54:52 10° ENE 19:55:32 10° NE 19:56:11 10° NE visible
13 Apr ? 21:33:43 54° E 21:34:07 56° ENE 21:39:13 10° N visible
13 Apr ? 23:14:39 22° W 23:14:39 22° W 23:18:14 10° NW visible
